カタログに戻る

TIANFU DONGPO 07

運用中通信PO
NORAD 53444·PAYLOAD·🇨🇳 China
この衛星名は、まだ公式ソースで確認されていません。

打ち上げ Aug 10, 2022 から Taiyuan Satellite Launch Center

Loading…

次のパス (今後24時間)

TLE

最新Source: Space-Track

元期: Sep 14, 2026, 16:05 UTC

1 53444U 22098A   26257.67063272  .00376563  62738-4  72101-3 0  9990
2 53444  97.5612  37.5227 0004571 275.0172  85.0584 16.00550290228908

AllMySatでTIANFU DONGPO 07をリアルタイム追跡

Download on the App Store